Вернуться в каталог

FENGYUN 1C DEB

АктивенPO
NORAD 30907·DEBRIS·🇨🇳 China

Запущен May 10, 1999 с Taiyuan Satellite Launch Center

Loading…

Ближайшие Пролёты (ближайшие 24 часа)

TLE

УстаревающийSource: Space-Track

Эпоха: Sep 4, 2026, 23:31 UTC

1 30907U 99025AYV 26247.98025531  .00000759  00000-0  40596-3 0  9996
2 30907  99.9295 303.3625 0057759 126.3350 234.3172 14.15866828 53165

Отслеживайте FENGYUN 1C DEB в реальном времени с AllMySat

Download on the App Store